Temp
7 8 9 10 10 12 13 13 13 13 14 14 15 16 16 17 17 17 17 19 19 20 20 20 21 19 19 21 22 23 25 26 28 28 29 28 29 27 26 27 27 27 27 27 26
7 7 8 8 9 9 9 9 10 11 12 13 14 15 15 15 16 17 18 19 19 19 19 19 20 20 21 22 23 24 26 27 29 29 29 29 28 28 26 27 27 28 27 27 25
7 7 7 7 7 8 8 9 8 8 9 10 11 12 13 14 13 17 18 20 20 21 20 19 21 21 22 23 24 24 26 28 28 28 28 28 27 28 27 27 27 28 27 26 26
7 7 7 7 7 7 7 7 8 9 8 8 8 9 11 12 18 17 17 17 18 20 20 19 20 21 23 24 24 25 26 26 27 27 27 27 26 27 27 27 26 26 26 26 26
5 6 6 6 7 7 8 8 7 7 7 8 8 7 8 9 13 15 16 16 16 17 17 19 20 21 24 24 25 26 26 26 25 25 26 26 26 26 26 26 25 26 26 26 26
4 4 5 5 6 7 7 7 7 7 7 7 8 8 5 9 12 14 15 16 16 15 16 18 20 22 23 24 25 25 26 26 25 25 25 26 26 26 26 25 26 26 26 26 26
4 4 4 5 5 6 6 6 7 7 8 8 7 4 4 8 13 11 14 15 13 14 17 17 19 20 22 23 23 24 25 26 25 25 26 25 25 26 26 26 26 26 26 26 25
4 3 4 4 5 5 6 6 7 7 8 8 8 3 5 9 9 13 13 13 12 13 14 17 18 18 20 21 22 24 24 24 26 26 25 25 24 28 27 27 27 26 26 26 25
3 3 3 4 4 5 5 6 7 7 8 8 5 4 10 9 8 11 10 10 13 13 13 15 17 18 20 20 22 24 23 24 25 27 26 25 25 28 27 27 26 25 26 26 25
3 3 3 4 4 5 6 7 7 6 5 5 5 6 9 11 11 10 11 10 11 14 13 14 17 20 21 21 22 23 23 24 25 27 25 25 25 27 27 26 26 26 26 25 25
4 4 4 4 4 4 5 5 8 8 6 9 11 9 11 11 11 11 11 10 11 13 16 16 18 19 21 22 23 24 24 25 25 27 25 25 26 27 28 26 26 26 26 26 25
4 4 4 4 4 5 4 5 4 3 5 7 8 8 9 9 9 10 11 12 12 15 17 19 18 22 22 23 22 22 23 24 25 26 26 25 25 27 27 27 26 26 26 26 26
4 4 4 4 4 4 3 4 3 3 5 8 9 9 10 9 9 10 11 13 15 15 17 19 20 22 22 22 22 22 22 23 23 25 25 24 23 24 26 27 26 26 25 26 26
4 4 4 4 3 3 4 3 3 3 6 12 11 11 10 9 11 10 11 13 15 15 17 18 22 22 22 22 23 22 23 22 23 22 22 24 23 24 26 26 27 26 26 27 26
3 3 3 2 2 3 4 3 3 4 8 12 12 11 11 12 12 13 12 12 14 16 17 18 19 21 22 22 23 23 24 23 22 22 22 23 22 24 25 25 26 27 26 27 26
3 4 3 2 1 2 3 2 3 5 8 12 13 12 13 12 12 12 13 12 13 15 17 18 21 21 22 23 23 23 23 22 22 22 21 22 22 23 24 25 26 28 27 27 24
4 4 3 1 2 1 2 4 5 7 12 11 11 12 13 12 12 11 12 13 13 13 14 17 18 20 22 22 23 22 21 20 20 20 20 23 22 23 24 26 26 28 27 25 22
4 3 2 2 2 2 2 4 6 10 10 11 11 11 12 12 11 11 10 10 15 15 16 15 16 19 21 22 21 21 22 22 20 21 22 23 22 24 25 26 26 26 27 25 22
5 3 3 2 2 2 3 5 8 8 8 8 10 10 12 12 11 11 9 6 9 15 15 16 17 21 21 22 23 21 22 24 23 24 23 25 24 24 24 26 27 27 26 24 22
2 3 4 1 2 2 4 6 7 8 8 9 8 10 9 11 10 11 9 5 6 10 11 15 15 21 21 22 23 23 23 21 23 21 21 24 24 23 26 27 27 27 27 25 21
3 5 3 2 2 2 4 6 7 8 7 8 8 8 9 10 11 11 9 7 4 8 10 13 14 19 21 20 22 22 22 23 23 23 22 22 24 25 25 27 27 28 27 23 21
3 7 3 2 5 2 4 6 5 7 7 8 8 8 8 10 10 10 9 8 6 7 8 13 13 15 20 22 23 23 23 22 22 21 23 24 24 24 26 26 28 29 25 22 21
4 3 3 3 5 5 6 7 7 8 8 7 7 9 9 8 8 9 9 8 7 7 7 8 13 16 18 21 22 22 23 23 23 24 22 23 23 26 26 26 26 25 23 21 21
3 5 5 4 3 3 4 7 7 8 8 8 7 8 8 9 10 9 10 7 6 6 6 7 11 16 18 20 21 21 22 23 22 22 23 23 24 26 26 27 26 25 22 21 21
3 5 3 5 4 3 5 6 7 7 7 8 7 7 7 7 9 10 8 8 7 6 7 9 12 15 16 16 16 19 22 22 22 22 22 24 23 26 28 26 26 24 22 22 22
3 2 4 4 4 5 6 7 6 6 5 6 8 8 7 7 7 8 9 9 6 5 6 9 10 14 14 16 17 18 20 22 22 22 23 23 23 26 27 26 26 24 23 23 22
1 1 1 4 4 4 5 6 5 5 6 7 6 6 7 8 7 8 8 8 9 9 9 7 10 13 14 17 17 17 19 21 22 23 23 22 24 25 25 25 26 25 23 24 23
Height
1527 1525 1522 1520 1519 1516 1515 1513 1512 1513 1512 1511 1509 1509 1511 1510 1511 1512 1510 1513 1516 1516 1517 1518 1519 1522 1524 1523 1521 1518 1515 1508 1500 1499 1496 1499 1498 1502 1502 1501 1501 1499 1499 1500 1500
1525 1522 1520 1518 1515 1513 1512 1510 1508 1508 1506 1505 1505 1505 1505 1506 1506 1501 1503 1506 1510 1511 1513 1514 1515 1517 1519 1517 1516 1513 1502 1499 1494 1492 1494 1492 1497 1496 1500 1499 1497 1493 1494 1496 1497
1525 1522 1520 1518 1516 1514 1512 1510 1508 1504 1502 1502 1501 1501 1502 1503 1503 1496 1495 1497 1500 1503 1505 1510 1511 1514 1513 1511 1507 1503 1492 1490 1493 1493 1495 1493 1495 1492 1492 1493 1493 1490 1491 1493 1493
1524 1522 1519 1517 1514 1511 1509 1508 1506 1503 1501 1498 1497 1496 1497 1500 1499 1487 1489 1489 1490 1492 1497 1502 1504 1506 1506 1501 1502 1496 1489 1492 1491 1489 1491 1492 1491 1488 1487 1488 1489 1488 1489 1486 1484
1522 1519 1517 1514 1512 1509 1507 1504 1500 1498 1499 1498 1496 1494 1496 1497 1488 1488 1486 1487 1487 1488 1489 1493 1496 1497 1492 1495 1494 1486 1488 1489 1489 1492 1491 1490 1487 1483 1481 1484 1484 1484 1483 1480 1479
1519 1517 1514 1511 1509 1507 1504 1501 1499 1497 1495 1494 1494 1493 1495 1489 1482 1481 1482 1484 1485 1488 1487 1489 1490 1491 1486 1485 1483 1483 1483 1484 1486 1484 1487 1485 1479 1480 1477 1479 1477 1478 1476 1473 1471
1517 1515 1512 1508 1505 1502 1500 1497 1495 1494 1492 1490 1488 1487 1486 1474 1476 1475 1478 1478 1479 1483 1485 1485 1488 1488 1485 1483 1480 1478 1480 1476 1478 1479 1479 1481 1471 1470 1473 1473 1470 1471 1469 1467 1465
1516 1513 1509 1506 1502 1499 1496 1493 1490 1488 1486 1485 1483 1484 1475 1470 1470 1471 1471 1471 1473 1474 1479 1483 1485 1486 1483 1481 1477 1474 1475 1472 1467 1471 1473 1478 1464 1459 1464 1464 1463 1465 1463 1461 1458
1513 1510 1507 1503 1500 1496 1492 1488 1485 1482 1480 1479 1480 1481 1469 1464 1462 1463 1464 1465 1470 1472 1473 1479 1482 1479 1481 1480 1475 1463 1461 1457 1463 1460 1464 1468 1454 1454 1456 1458 1460 1459 1456 1454 1450
1511 1508 1504 1500 1495 1491 1487 1483 1479 1478 1477 1478 1479 1484 1466 1462 1461 1461 1463 1463 1464 1466 1471 1472 1474 1471 1469 1464 1441 1452 1456 1456 1453 1452 1463 1460 1449 1449 1452 1454 1452 1451 1449 1447 1444
1509 1505 1501 1497 1492 1489 1485 1484 1482 1478 1476 1473 1468 1463 1457 1458 1459 1459 1461 1460 1459 1460 1452 1459 1463 1448 1428 1441 1446 1447 1445 1443 1448 1447 1452 1449 1441 1440 1443 1448 1445 1443 1443 1440 1436
1507 1503 1499 1494 1490 1487 1486 1487 1486 1486 1474 1465 1458 1456 1453 1456 1456 1454 1458 1456 1452 1443 1450 1448 1437 1400 1438 1441 1446 1449 1446 1440 1440 1442 1442 1447 1440 1435 1436 1436 1439 1436 1434 1433 1430
1506 1501 1497 1492 1488 1485 1486 1486 1484 1483 1476 1454 1448 1448 1448 1449 1447 1445 1448 1446 1442 1440 1431 1419 1394 1432 1430 1435 1439 1438 1442 1446 1445 1440 1439 1443 1441 1434 1431 1429 1427 1427 1426 1426 1424
1503 1499 1494 1489 1489 1486 1485 1484 1484 1483 1470 1439 1442 1443 1444 1444 1441 1437 1436 1440 1436 1431 1429 1423 1410 1417 1423 1423 1424 1428 1437 1444 1445 1450 1447 1440 1437 1423 1420 1416 1418 1417 1418 1416 1416
1500 1495 1490 1486 1485 1486 1486 1483 1482 1482 1452 1435 1439 1440 1438 1438 1435 1427 1431 1433 1426 1423 1423 1406 1410 1408 1407 1393 1417 1412 1428 1435 1440 1444 1442 1436 1439 1413 1414 1415 1409 1408 1410 1409 1410
1496 1490 1484 1484 1483 1483 1483 1481 1482 1478 1445 1432 1433 1434 1432 1434 1432 1431 1427 1429 1428 1425 1413 1409 1402 1403 1388 1404 1408 1421 1428 1431 1433 1436 1438 1431 1434 1421 1409 1403 1398 1398 1400 1400 1408
1492 1486 1483 1481 1483 1479 1479 1480 1473 1455 1435 1434 1436 1435 1430 1428 1431 1433 1427 1418 1418 1421 1414 1404 1400 1398 1396 1400 1405 1415 1426 1434 1442 1437 1428 1418 1421 1407 1398 1389 1392 1392 1395 1399 1405
1490 1486 1484 1483 1480 1478 1479 1479 1461 1439 1439 1442 1441 1437 1429 1427 1429 1430 1429 1426 1402 1403 1399 1405 1402 1391 1385 1385 1389 1398 1401 1401 1426 1422 1412 1404 1410 1391 1386 1385 1387 1389 1392 1396 1403
1487 1487 1487 1482 1479 1477 1479 1467 1448 1450 1453 1450 1443 1432 1422 1424 1428 1425 1429 1439 1425 1403 1399 1389 1383 1372 1379 1382 1380 1390 1391 1385 1393 1391 1400 1386 1388 1384 1385 1377 1377 1380 1386 1393 1400
1487 1487 1486 1480 1479 1480 1477 1466 1459 1458 1456 1450 1443 1434 1429 1421 1425 1419 1426 1441 1434 1419 1419 1395 1390 1363 1374 1378 1376 1375 1384 1398 1390 1408 1412 1393 1389 1390 1372 1368 1370 1374 1379 1387 1396
1488 1486 1486 1481 1480 1481 1474 1465 1460 1459 1457 1451 1442 1438 1431 1427 1424 1418 1422 1432 1439 1427 1419 1406 1393 1367 1366 1365 1360 1368 1374 1378 1380 1383 1398 1400 1387 1371 1374 1365 1367 1369 1376 1385 1393
1490 1485 1486 1482 1481 1481 1474 1469 1467 1458 1455 1452 1446 1439 1434 1426 1422 1419 1421 1427 1432 1430 1418 1403 1394 1380 1358 1357 1356 1361 1365 1374 1381 1395 1383 1378 1382 1368 1365 1366 1364 1365 1375 1384 1391
1490 1488 1485 1482 1478 1474 1471 1467 1463 1457 1453 1450 1445 1440 1436 1430 1427 1420 1420 1426 1426 1426 1423 1419 1392 1376 1362 1358 1358 1358 1359 1366 1369 1369 1385 1390 1387 1364 1366 1366 1369 1372 1378 1384 1389
1492 1488 1484 1484 1484 1483 1475 1461 1458 1455 1453 1450 1446 1440 1435 1427 1421 1419 1416 1427 1427 1425 1424 1420 1400 1371 1358 1353 1353 1359 1357 1361 1369 1376 1374 1378 1372 1364 1364 1365 1371 1375 1381 1385 1388
1494 1490 1490 1481 1481 1481 1474 1467 1456 1453 1453 1447 1443 1441 1440 1434 1423 1414 1423 1423 1423 1422 1419 1411 1389 1379 1376 1375 1375 1360 1357 1360 1367 1371 1376 1369 1373 1362 1359 1369 1371 1375 1381 1385 1387
1496 1494 1488 1483 1480 1475 1468 1458 1458 1457 1459 1449 1442 1439 1439 1435 1430 1421 1417 1417 1424 1424 1417 1409 1396 1380 1379 1376 1374 1370 1360 1357 1363 1367 1370 1369 1371 1367 1364 1368 1372 1376 1379 1381 1385
1494 1493 1491 1481 1477 1476 1468 1465 1463 1461 1453 1448 1447 1445 1435 1431 1430 1425 1422 1420 1418 1415 1412 1412 1402 1384 1374 1368 1373 1374 1364 1360 1360 1363 1365 1371 1365 1365 1367 1369 1371 1372 1378 1379 1383
Wind_Speed
12 13 13 13 15 18 20 22 22 23 23 25 27 28 28 27 28 26 27 23 12 13 9 10 10 15 12 18 17 15 10 14 19 15 12 6 10 5 5 11 14 12 15 15 14
14 15 16 16 15 14 16 17 18 20 22 23 24 26 28 26 27 33 32 27 24 22 18 16 15 16 21 19 17 18 15 22 21 14 16 17 12 13 11 15 21 21 18 15 14
14 15 16 17 17 17 15 15 18 19 19 19 19 21 22 19 18 20 25 27 27 28 29 21 17 17 23 27 27 25 25 21 26 23 23 22 23 21 20 15 25 23 21 23 23
14 15 15 16 18 18 19 19 16 17 19 19 18 18 17 9 9 6 16 19 24 30 31 26 23 25 24 26 32 30 30 28 30 33 24 20 29 25 24 24 30 26 25 27 31
16 17 17 17 18 19 19 20 21 21 17 16 17 17 12 12 22 12 11 10 6 7 23 33 31 30 28 27 31 31 25 32 28 32 30 26 27 31 30 28 31 26 25 28 30
17 17 18 18 19 19 19 19 19 20 20 20 18 17 11 20 13 23 26 17 13 8 11 26 21 31 29 33 31 30 32 35 34 32 28 25 30 31 29 31 30 28 27 27 28
17 18 19 20 21 21 20 20 20 19 20 21 21 15 18 30 20 17 20 30 26 14 15 16 29 15 24 23 31 32 25 24 24 27 26 26 26 26 27 30 28 24 25 27 28
17 18 20 21 22 21 20 21 21 20 19 18 17 10 15 16 18 22 22 30 22 25 19 15 17 27 22 18 16 21 25 24 25 23 27 20 28 23 23 25 23 21 25 28 30
20 19 20 20 20 21 22 21 19 16 14 13 7 11 15 11 11 14 15 21 18 19 18 17 16 23 19 19 18 25 26 32 25 22 18 21 32 23 22 22 18 23 28 31 31
20 20 21 23 23 24 24 19 13 9 5 2 6 7 15 13 5 7 10 10 14 17 17 22 18 15 19 20 29 25 26 27 28 21 15 24 30 21 25 24 27 25 31 28 30
22 23 24 25 24 24 21 14 7 7 6 14 12 18 22 21 16 14 7 6 11 21 23 28 20 28 42 35 27 26 30 30 23 22 21 27 29 24 22 23 29 28 30 32 30
23 24 24 25 25 23 10 9 5 6 14 22 31 32 34 30 22 23 13 11 14 22 26 20 30 47 29 29 29 29 29 30 24 23 23 24 29 26 24 24 31 29 32 28 27
24 25 26 25 24 11 12 6 3 10 9 20 16 18 16 12 19 27 21 25 19 20 28 34 43 26 32 30 30 31 30 25 27 20 22 24 29 31 27 31 30 24 24 31 28
26 27 27 26 10 10 9 3 6 9 6 6 5 4 4 6 7 17 14 28 20 24 24 31 35 29 32 35 33 31 25 25 25 21 23 22 23 28 22 22 22 29 28 27 21
28 28 29 20 15 8 7 5 6 4 6 6 6 2 1 6 10 6 9 22 28 23 16 31 29 33 31 43 30 33 22 23 24 23 25 28 19 23 19 21 25 20 24 24 13
28 30 22 8 6 7 8 8 3 5 9 1 4 2 5 2 4 10 11 13 20 27 24 28 21 25 42 20 29 22 17 18 18 17 21 24 21 24 24 27 25 22 18 19 10
29 20 11 8 5 9 3 4 5 8 7 0 6 7 13 2 9 5 9 11 13 21 27 22 29 19 21 28 25 27 21 11 13 14 17 19 19 21 24 17 25 18 11 11 11
28 8 9 6 9 5 1 4 8 4 5 15 11 17 17 4 3 8 14 12 15 24 20 21 20 31 21 30 22 30 27 14 19 15 15 20 11 14 10 22 32 28 14 10 13
22 3 9 11 7 3 4 5 7 10 8 10 15 16 15 4 6 7 3 6 9 20 19 18 28 30 22 27 28 29 24 24 11 10 7 13 14 16 17 21 16 17 20 15 12
13 2 11 9 2 1 3 5 5 9 13 13 16 11 14 10 9 9 2 3 12 13 13 6 12 25 35 24 27 28 24 21 15 18 16 12 10 8 8 11 13 13 15 17 16
8 3 9 8 3 2 3 5 9 12 13 7 11 12 15 15 15 12 2 4 5 13 12 13 8 16 28 24 27 18 23 19 18 13 14 7 8 9 17 10 12 12 16 18 21
8 2 6 5 3 1 5 9 11 11 11 9 8 10 12 11 12 5 1 3 8 8 8 4 6 12 26 24 24 27 21 26 13 20 11 6 4 1 7 2 10 7 12 19 23
10 4 6 7 3 4 6 9 5 12 11 7 10 6 11 12 6 4 2 7 11 5 5 4 9 10 15 21 21 27 23 26 17 15 19 12 3 6 5 6 4 8 16 22 25
6 4 3 3 3 8 10 7 9 10 8 14 10 12 11 10 8 7 9 8 7 7 7 7 8 16 7 21 15 25 25 26 23 11 12 15 13 8 8 8 7 8 17 22 26
5 2 4 4 4 8 13 9 13 8 8 12 4 6 11 7 16 8 8 11 5 6 6 3 12 18 13 6 6 12 24 24 26 21 16 12 18 13 11 8 7 9 20 23 25
5 5 6 16 10 9 6 7 10 11 7 10 10 15 14 14 15 18 15 9 2 4 6 4 5 13 17 13 7 7 9 25 21 23 19 14 15 15 15 13 4 6 21 23 24
4 5 6 9 6 7 5 7 13 15 11 9 14 16 16 12 15 20 19 18 15 13 11 5 4 9 18 16 6 11 13 17 21 21 20 20 19 13 5 8 8 3 18 22 23
Wind_Direction
342 336 324 318 312 302 294 291 291 288 283 281 281 279 276 275 277 276 268 261 258 232 246 227 229 217 218 228 221 221 235 246 245 247 246 175 250 182 273 275 283 261 270 280 296
341 340 337 333 327 323 320 318 310 300 292 284 281 278 279 280 278 272 264 264 254 241 234 217 209 204 224 231 221 218 227 241 253 263 261 270 261 280 277 278 280 275 264 269 280
331 329 329 328 328 324 322 317 317 319 312 305 296 284 279 287 297 267 253 256 250 242 236 228 218 218 228 233 225 231 246 241 245 250 263 287 278 276 274 267 269 289 300 288 283
329 325 323 322 321 321 321 318 312 311 312 316 313 304 292 274 251 232 229 231 235 237 225 213 213 219 231 235 232 242 249 244 259 260 257 262 274 278 267 272 275 290 291 291 291
330 329 325 322 318 315 315 315 315 314 313 308 305 310 312 245 239 273 222 210 228 249 218 205 211 218 228 238 244 243 249 252 252 263 269 264 265 269 275 277 277 290 290 288 285
338 334 329 324 319 315 312 310 304 308 309 304 296 295 283 252 253 241 234 218 238 240 224 211 222 227 239 238 243 250 250 249 254 255 260 262 264 269 271 275 282 287 290 292 290
342 337 333 330 326 322 317 309 307 306 301 298 295 285 263 253 261 267 242 238 242 235 225 216 213 217 228 249 249 253 253 254 245 250 253 263 264 255 267 272 275 279 289 290 288
342 338 334 333 330 326 321 315 312 303 298 290 283 249 260 285 269 262 251 251 251 237 227 218 218 231 239 252 261 242 239 246 233 229 243 239 265 264 270 271 274 282 291 293 292
344 339 334 333 331 327 325 318 311 301 293 284 244 217 274 269 258 260 252 249 239 239 226 222 225 225 226 233 246 226 234 231 242 238 242 231 257 255 257 270 273 281 293 298 293
342 338 336 334 331 331 331 326 316 302 299 213 234 232 246 248 261 279 277 246 232 211 211 212 211 214 223 214 227 222 229 245 257 234 224 241 251 255 257 270 276 287 294 293 293
339 334 331 330 329 331 338 345 303 251 260 255 272 245 274 277 280 269 264 229 216 215 206 195 201 214 218 219 238 249 245 247 237 243 244 249 256 257 261 271 276 286 286 290 290
347 340 333 327 328 332 344 340 321 315 295 278 263 262 262 268 276 266 248 226 199 218 208 189 214 222 218 224 227 239 245 246 249 239 236 251 267 274 270 272 278 280 283 281 285
346 343 337 329 328 338 333 302 293 327 266 288 264 260 261 246 250 256 237 227 231 230 212 214 220 218 219 222 226 227 234 240 251 255 252 258 266 267 266 260 273 268 264 276 277
339 336 333 327 339 312 317 270 294 316 282 256 192 206 200 216 234 247 238 221 224 236 229 229 234 217 222 222 218 229 219 240 255 253 251 247 268 264 272 269 265 268 277 270 258
335 332 324 320 296 307 285 295 299 280 282 102 139 100 154 240 331 89 204 222 232 222 223 224 227 226 221 223 215 236 228 234 241 249 260 249 256 265 261 266 265 261 263 263 243
339 333 330 349 279 287 284 286 269 231 245 224 155 285 247 212 308 350 289 224 241 241 241 237 223 224 232 219 221 223 218 226 237 245 245 245 252 259 259 265 268 267 265 238 201
346 347 11 14 335 307 279 252 232 247 34 197 326 320 307 342 307 328 341 262 219 211 229 228 240 235 236 211 205 202 194 202 220 225 246 242 249 254 254 264 246 259 254 180 179
349 12 0 350 325 329 235 206 254 307 270 333 323 302 281 9 304 287 327 320 217 231 219 222 223 223 213 211 188 193 190 203 215 231 242 218 252 240 256 248 251 255 240 173 173
355 339 8 343 359 149 234 234 335 355 350 315 308 274 273 215 308 277 340 304 298 231 239 223 231 193 221 211 197 190 208 212 239 230 270 221 228 271 257 255 248 238 219 190 179
352 359 1 352 10 215 281 310 322 330 312 296 285 287 297 310 308 313 72 55 315 339 326 268 256 224 199 206 209 196 194 197 219 234 228 242 240 240 256 235 224 215 198 190 174
357 299 356 20 13 338 315 312 323 326 324 307 302 294 289 291 282 287 206 133 283 320 301 283 256 223 185 200 190 191 197 212 209 227 209 228 224 201 238 244 193 191 183 173 170
357 324 344 353 313 183 323 333 323 319 327 292 294 289 286 293 294 270 270 209 206 301 302 274 286 271 198 205 216 201 203 199 197 198 247 216 229 290 242 303 208 210 157 164 165
343 299 330 354 342 337 326 301 290 310 337 331 306 318 305 298 291 301 335 199 196 229 306 357 232 224 212 199 207 195 207 195 211 201 206 221 229 208 135 138 144 140 152 157 157
340 329 337 8 337 333 331 306 327 329 314 318 301 298 332 314 293 286 309 43 253 256 260 252 251 253 190 195 191 202 203 192 206 205 187 212 208 180 137 120 134 146 160 161 161
357 358 325 306 317 320 297 295 305 353 323 312 282 313 339 315 316 297 354 312 314 202 249 279 242 227 259 313 300 275 206 205 207 217 226 194 228 236 162 64 44 170 169 167 164
348 338 319 294 289 301 292 305 317 341 314 306 306 326 316 301 295 295 310 309 324 307 297 279 302 263 250 238 240 243 247 206 208 211 227 232 236 239 278 291 271 178 178 174 172
305 307 290 293 290 308 303 320 312 316 294 287 312 309 300 320 320 300 290 287 275 286 289 294 308 240 233 213 228 230 209 222 210 212 217 221 231 253 267 225 249 160 187 185 180